Weather History for Marianna, FL

Change the Weather History Date:

Thursday, December 6, 2012

  Actual Average Record
Temperature  
Mean Temperature 63 °F 55 °F  
Max Temperature 76 °F 66 °F 82 °F (2013)
Min Temperature 50 °F 43 °F 28 °F (2000)
Degree Days  
Heating Degree Days 2    
Month to date heating degree days 12  
Since 1 July heating degree days 301  
Cooling Degree Days 0    
Month to date cooling degree days 0  
Year to date cooling degree days 2743  
Growing Degree Days 13 (Base 50)    
Moisture  
Dew Point 56 °F    
Average Humidity 74    
Maximum Humidity 97    
Minimum Humidity 50    
Precipitation  
Precipitation 0.00 in 0.14 in 0.11 in (2011)
Month to date precipitation 0.00 0.86  
Year to date precipitation 55.87 50.53  
Sea Level Pressure  
Sea Level Pressure 30.03 in    
Wind  
Wind Speed 4 mph (ENE)    
Max Wind Speed 12 mph    
Max Gust Speed 23 mph    
Visibility 10 miles    
Events      
T = Trace of Precipitation, MM = Missing Value Source: NWS Daily Summary

Daily Weather History Graph

Daily Weather History Graph

Search for Another Location

Airport:

Trip Planner

Search our weather history database for the weather conditions in past years. The results will help you decide how hot, cold, wet, or windy it might be!

Date:

Astronomy

Dec. 06, 2012 Rise Set
Actual Time 6:25 AM CST 4:38 PM CST
Civil Twilight 5:58 AM CST 5:05 PM CST
Nautical Twilight 5:28 AM CST 5:35 PM CST
Astronomical Twilight 4:59 AM CST 6:04 PM CST
Moon No Moon Rise 11:40 AM CST (12/6)
Length of Visible Light 11h 06m
Length of Day
10h 13m
Waning Gibbous, 49% of the Moon is Illuminated
Dec 6
Waning Gibbous
Dec 13
New
Dec 19
First Quarter
Dec 28
Full
Jan 4
Last Quarter

Hourly Weather History & Observations

Time (CST) Temp. Dew Point Humidity Pressure Visibility Wind Dir Wind Speed Gust Speed Precip Events Conditions
12:53 AM 55.0 °F 52.0 °F 89% 30.07 in 10.0 mi Calm Calm - N/A   Overcast
1:53 AM 53.1 °F 51.1 °F 93% 30.05 in 10.0 mi Calm Calm - N/A   Clear
2:53 AM 52.0 °F 50.0 °F 93% 30.05 in 10.0 mi Calm Calm - N/A   Clear
3:53 AM 51.1 °F 50.0 °F 96% 30.04 in 10.0 mi Calm Calm - N/A   Clear
4:53 AM 53.1 °F 51.1 °F 93% 30.04 in 10.0 mi Calm Calm - N/A   Overcast
5:53 AM 52.0 °F 50.0 °F 93% 30.06 in 10.0 mi Calm Calm - N/A   Overcast
6:53 AM 51.1 °F 50.0 °F 96% 30.08 in 9.0 mi Calm Calm - N/A   Clear
7:53 AM 57.9 °F 54.0 °F 87% 30.08 in 10.0 mi ENE 3.5 mph - N/A   Clear
8:53 AM 64.0 °F 55.9 °F 75% 30.09 in 10.0 mi Variable 3.5 mph - N/A   Clear
9:53 AM 69.1 °F 57.9 °F 68% 30.07 in 10.0 mi East 10.4 mph 16.1 mph N/A   Clear
10:53 AM 72.0 °F 57.9 °F 61% 30.05 in 10.0 mi NE 8.1 mph - N/A   Clear
11:53 AM 73.0 °F 57.0 °F 57% 30.02 in 10.0 mi NE 5.8 mph - N/A   Partly Cloudy
12:53 PM 73.9 °F 57.0 °F 55% 30.00 in 10.0 mi Variable 6.9 mph - N/A   Mostly Cloudy
1:53 PM 75.0 °F 55.9 °F 51% 29.98 in 10.0 mi East 5.8 mph - N/A   Scattered Clouds
2:53 PM 73.9 °F 57.0 °F 55% 29.98 in 10.0 mi ENE 6.9 mph - N/A   Overcast
3:53 PM 73.0 °F 57.0 °F 57% 29.99 in 10.0 mi NE 8.1 mph - N/A   Clear
4:53 PM 68.0 °F 57.9 °F 70% 29.99 in 10.0 mi NE 3.5 mph - N/A   Partly Cloudy
5:53 PM 66.0 °F 57.9 °F 75% 30.00 in 10.0 mi ENE 3.5 mph - N/A   Mostly Cloudy
6:53 PM 64.9 °F 57.9 °F 78% 30.01 in 10.0 mi NE 6.9 mph - N/A   Scattered Clouds
7:53 PM 64.0 °F 57.9 °F 80% 30.02 in 10.0 mi ENE 4.6 mph - N/A   Mostly Cloudy
8:53 PM 64.0 °F 57.9 °F 80% 30.01 in 10.0 mi ENE 5.8 mph - N/A   Clear
9:53 PM 62.1 °F 57.9 °F 86% 30.02 in 10.0 mi ENE 4.6 mph - N/A   Mostly Cloudy
10:37 PM 62.6 °F 59.0 °F 88% 30.03 in 10.0 mi NE 4.6 mph - N/A   Overcast
10:53 PM 61.0 °F 59.0 °F 93% 30.03 in 10.0 mi ENE 5.8 mph - N/A   Overcast
11:09 PM 62.6 °F 59.0 °F 88% 30.02 in 10.0 mi ENE 6.9 mph - N/A   Mostly Cloudy
11:53 PM 59.0 °F 57.9 °F 96% 30.02 in 10.0 mi NE 5.8 mph - N/A   Partly Cloudy